Regional Weather Roundup
Issued by NWS

Home | Current Version | Previous Version | Graphics & Text | Print | Product List | Glossary On
Versions: 1 2 3 4 5 6 7 8 9 10 11 12 13 14 15 16 17 18 19 20 21 22 23 24 25 26 27 28 29 30 31 32 33 34 35 36 37 38 39 40 41 42 43 44 45 46 47 48 49
000
ASUS45 KBOU 290807
RWRCO

WEATHER ROUNDUP FOR COLORADO
NATIONAL WEATHER SERVICE DENVER/BOULDER CO
100 AM MST MON DEC 29 2014

NOTE: "FAIR" INDICATES FEW OR NO CLOUDS BELOW 12000 FEET WITH NO
SIGNIFICANT WEATHER AND/OR OBSTRUCTIONS TO VISIBILITY.

COZ001>005-013-030-031-290900-
...NORTHWEST COLORADO...

CITY           SKY/WX    TMP DP  RH WIND       PRES   REMARKS
CRAIG          LGT SNOW  17  14  88 CALM      29.97F FOG
HAYDEN         CLOUDY    18  14  86 CALM      29.94F
MEEKER         LGT SNOW  21  17  84 CALM      29.94F VSB 1
MOUNT WERNER   NOT AVBL
STEAMBOAT SPGS CLOUDY    16  14  93 CALM      29.94S
WALDEN         MOCLDY     1  -4  78 E6        29.88S WCI -10
$$

COZ006>008-011-290900-
...WEST CENTRAL VALLEYS...

CITY           SKY/WX    TMP DP  RH WIND       PRES   REMARKS
GRAND JUNCTION LGT SNOW  22  21  96 CALM      30.01F VSB 1
MONTROSE       PTCLDY    18  12  77 SW7       29.99F WCI   9
EAGLE          CLOUDY    18  16  93 CALM      29.97F
RIFLE          LGT SNOW  20  17  88 CALM      30.00F FOG
DELTA          CLOUDY    22  15  74 CALM      30.00S
NUCLA          CLOUDY    23  14  68 CALM      30.00S
$$

COZ017>023-064>068-290900-
...SOUTHWEST COLORADO...

CITY           SKY/WX    TMP DP  RH WIND       PRES   REMARKS
DURANGO        CLEAR      4   2  91 NE3       30.00F
CORTEZ         CLEAR      7   3  84 CALM      30.01F
PAGOSA SPRINGS MOCLDY   N/A N/A N/A CALM      29.99F
TELLURIDE      NOT AVBL
WOLF CREEK PAS LGT SNOW   3   1  92 MISG      29.84F
$$

COZ009-010-012-014-032>034-037-058>063-290900-
...CENTRAL COLORADO...

CITY           SKY/WX    TMP DP  RH WIND       PRES   REMARKS
ASPEN          LGT SNOW  13  11  92 CALM      29.89F FOG
BUENA VISTA    MOCLDY    13   8  79 CALM      29.87F
COPPER MTN     LGT SNOW   7   0  72 W17       29.76S WCI -12
BERTHOUD PASS  NOT AVBL
COTTONWOOD PAS CLOUDY    19   9  63 CALM      29.81F
GUNNISON       CLOUDY     0 -29  24 S3        29.96S
KREMMLING      CLOUDY    12   7  79 E5        29.92F WCI   4
LEADVILLE      LGT SNOW   9   6  88 N6        29.80F FOG     WCI  -1
SALIDA         MOCLDY    21   6  52 SW10      29.95F WCI  10
SUNLIGHT       LGT SNOW N/A N/A N/A CALM      29.84S VSB 3/4
WILKERSON PASS MOCLDY     7   3  85 SW7       29.81F WCI  -5
$$

COZ069>075-290900-
...SAN LUIS VALLEY/SANGRE DE CRISTO MOUNTAINS...

CITY           SKY/WX    TMP DP  RH WIND       PRES   REMARKS
ALAMOSA        MOCLDY    -7 -11  83 S5        29.95F WCI -18
LA VETA PASS   NOT AVBL
SAGUACHE       CLOUDY     0  -4  85 CALM      29.96F
$$

COZ035-036-038>040-290900-
...NORTHERN COLORADO FRONT RANGE...

CITY           SKY/WX    TMP DP  RH WIND       PRES   REMARKS
DENVER INTL AP MOCLDY    12   9  87 N8        29.94R FOG     WCI   0
DMNS CITY PARK   N/A     20  12  70 N5        29.94R WCI  13
AURORA         MOCLDY    20  11  67 S7        29.93S WCI  11
FRONT RANGE AP CLOUDY    23  14  68 NW7       29.94R WCI  15
ERIE MUNI ARPT   N/A      3   1  89 MISG      29.97R
BOULDER MUN AP PTCLDY    14   9  79 CALM      29.96R
CENTENNIAL     MOCLDY    15   8  73 S3        29.92S
BROOMFIELD     CLOUDY    19  10  68 N13       29.94R WCI   7
FORT COLLINS   PTCLDY    10   0  61 SE5       29.97R WCI   2
LONGMONT       PTCLDY     4  -1  79 CALM      29.99R
$$

COZ041-046-047-076>085-087-088-290900-
...PIKES PEAK/PALMER DIVIDE AND SOUTHERN FOOTHILLS...

CITY           SKY/WX    TMP DP  RH WIND       PRES   REMARKS
COLO. SPRINGS  CLEAR     16   5  62 N3        29.92S
A. F. ACADEMY  PTCLDY    13   4  68 NE6       29.90S WCI   4
ELLICOTT       NOT AVBL
FALCON         CLEAR     14   5  68 NW6       29.91R WCI   5
FORT CARSON    PTCLDY    23   9  56 NW3       29.90F
LIMON          CLEAR      5   2  87 NW3       29.94S
MONUMENT HILL  PTCLDY    12   3  67 CALM      29.89S
TRINIDAD       CLEAR     12   5  73 W12       29.93F WCI  -2
$$

COZ042>045-048>051-090-091-290900-
...NORTHEAST COLORADO...

CITY           SKY/WX    TMP DP  RH WIND       PRES   REMARKS
GREELEY ARPT   MOCLDY     1  -8  66 W6        29.97R WCI -10
AKRON          PTCLDY    13  10  88 W10       29.97S WCI   0
BURLINGTON     FOG       17  14  88 W7        29.98S VSB 1/4 WCI   8
WRAY           PTCLDY     7   5  91 NW6       30.02S WCI  -3
STERLING       MOCLDY    12   9  85 SW7       30.00S WCI   2
HOLYOKE        PTCLDY     7   3  85 CALM      30.03R
FORT MORGAN    CLOUDY    13  10  85 NW3       29.98F
$$

COZ086-089-092>099-290900-
...SOUTHEAST COLORADO...

CITY           SKY/WX    TMP DP  RH WIND       PRES   REMARKS
PUEBLO         CLEAR     14   7  73 NE3       29.94F
LA JUNTA       CLEAR     18  12  77 N6        29.97S WCI  10
LAMAR          CLEAR     12   9  87 S8        29.97R WCI   0
SPRINGFIELD      N/A     21  13  71 NW10      29.93F WCI  10
$$


USA.gov is the U.S. government's official web portal to all federal, state and local government web resources and services.